Weather History for Grayling, MI

Change the Weather History Date:

Tuesday, July 22, 2014

  Actual Average (KHTL) Record (KHTL)
Temperature  
Mean Temperature 72 °F 67 °F  
Max Temperature 85 °F 80 °F 95 °F (1935)
Min Temperature 59 °F 55 °F 43 °F (1938)
Degree Days  
Heating Degree Days 0 1  
Month to date heating degree days 34  
Since 1 June heating degree days 158  
Since 1 July heating degree days 34  
Cooling Degree Days 7 4  
Month to date cooling degree days 85  
Year to date cooling degree days 160  
Since 1 June cooling degree days 144  
Growing Degree Days 22 (Base 50)    
Moisture  
Dew Point 65 °F    
Average Humidity 78    
Maximum Humidity 100    
Minimum Humidity 49    
Precipitation  
Precipitation 0.00 in 0.10 in 1.89 in (2010)
Month to date precipitation 1.89  
Year to date precipitation 14.85  
Sea Level Pressure  
Sea Level Pressure 29.99 in    
Wind  
Wind Speed 5 mph (SW)    
Max Wind Speed 15 mph    
Max Gust Speed 31 mph    
Visibility 9 miles    
Events Rain    
T = Trace of Precipitation, MM = Missing Value Source: NWS Daily Summary

Daily Weather History Graph

Daily Weather History Graph

Search for Another Location

Airport:

Trip Planner

Search our weather history database for the weather conditions in past years. The results will help you decide how hot, cold, wet, or windy it might be!

Date:

Astronomy

Jul. 22, 2014 Rise Set
Actual Time 6:14 AM EDT 9:15 PM EDT
Civil Twilight 5:39 AM EDT 9:50 PM EDT
Nautical Twilight 4:55 AM EDT 10:34 PM EDT
Astronomical Twilight 4:01 AM EDT 11:27 PM EDT
Moon 2:48 AM EDT (7/22) 5:51 PM EDT (7/22)
Length of Visible Light 16h 10m
Length of Day
15h 01m
Waning Crescent, 16% of the Moon is Illuminated
Jul 22
Waning Crescent
Jul 26
New
Aug 3
First Quarter
Aug 10
Full
Aug 17
Last Quarter

Hourly Weather History & Observations

Time (EDT) Temp. Heat Index Dew Point Humidity Pressure Visibility Wind Dir Wind Speed Gust Speed Precip Events Conditions
12:15 AM 66.2 °F - 63.9 °F 92% 30.10 in 10.0 mi Calm Calm - N/A   Clear
12:35 AM 65.7 °F - 64.0 °F 94% 30.10 in 10.0 mi Calm Calm - N/A   Clear
12:54 AM 64.0 °F - 61.7 °F 92% 30.10 in 10.0 mi Calm Calm - N/A   Clear
1:15 AM 63.9 °F - 63.5 °F 99% 30.09 in 7.0 mi Calm Calm - N/A   Clear
1:35 AM 61.3 °F - 61.0 °F 99% 30.08 in 7.0 mi Calm Calm - N/A   Clear
1:54 AM 62.2 °F - 62.2 °F 100% 30.08 in 10.0 mi Calm Calm - N/A   Clear
2:15 AM 60.3 °F - 60.3 °F 100% 30.08 in 3.0 mi Calm Calm - N/A   Clear
2:35 AM 60.1 °F - 59.2 °F 97% 30.08 in 5.0 mi Calm Calm - N/A   Clear
2:54 AM 59.4 °F - 58.8 °F 98% 30.08 in 5.0 mi Calm Calm - N/A   Clear
3:15 AM 61.7 °F - 61.7 °F 100% 30.07 in 7.0 mi SE 3.5 mph - N/A   Clear
3:35 AM 59.4 °F - 59.4 °F 100% 30.06 in 3.0 mi Calm Calm - N/A   Clear
3:55 AM 60.1 °F - 59.2 °F 97% 30.06 in 7.0 mi Calm Calm - N/A   Clear
4:15 AM 59.0 °F - 58.5 °F 98% 30.06 in 7.0 mi Calm Calm - N/A   Clear
4:35 AM 59.0 °F - 58.5 °F 98% 30.06 in 3.0 mi Calm Calm - N/A   Clear
4:55 AM 59.0 °F - 59.0 °F 100% 30.05 in 3.0 mi Calm Calm - N/A   Clear
5:15 AM 62.1 °F - 62.1 °F 100% 30.06 in 7.0 mi South 3.5 mph - N/A   Clear
5:35 AM 68.7 °F - 65.5 °F 89% 30.06 in 10.0 mi Calm Calm - N/A   Clear
5:55 AM 69.1 °F - 66.0 °F 90% 30.05 in 10.0 mi South 5.8 mph - N/A   Clear
6:15 AM 69.1 °F - 65.7 °F 89% 30.06 in 10.0 mi South 4.6 mph - N/A   Clear
6:35 AM 69.1 °F - 65.8 °F 89% 30.05 in 10.0 mi South 5.8 mph - N/A   Clear
6:55 AM 69.1 °F - 65.5 °F 88% 30.07 in 10.0 mi South 5.8 mph - N/A   Clear
7:15 AM 69.1 °F - 65.3 °F 88% 30.07 in 10.0 mi South 5.8 mph - N/A   Clear
7:35 AM 69.1 °F - 64.6 °F 86% 30.06 in 10.0 mi South 8.1 mph - N/A   Clear
7:55 AM 69.8 °F - 64.2 °F 82% 30.05 in 10.0 mi South 6.9 mph - N/A   Clear
8:14 AM 71.4 °F - 65.5 °F 81% 30.05 in 10.0 mi South 5.8 mph - N/A   Clear
8:35 AM 74.3 °F - 67.1 °F 78% 30.04 in 10.0 mi South 6.9 mph - N/A   Clear
8:54 AM 74.3 °F - 66.4 °F 76% 30.04 in 10.0 mi South 5.8 mph - N/A   Clear
9:15 AM 74.3 °F - 65.7 °F 74% 30.03 in 10.0 mi SSW 6.9 mph - N/A   Clear
9:35 AM 76.1 °F - 66.9 °F 73% 30.03 in 10.0 mi SSW 6.9 mph 16.1 mph N/A   Clear
9:54 AM 76.6 °F - 66.7 °F 71% 30.02 in 10.0 mi SSW 8.1 mph - N/A   Clear
10:15 AM 77.2 °F - 66.2 °F 69% 30.01 in 10.0 mi SW 11.5 mph - N/A   Clear
10:35 AM 79.2 °F - 67.1 °F 66% 30.01 in 10.0 mi SSW 10.4 mph - N/A   Clear
10:54 AM 79.2 °F - 65.7 °F 63% 29.99 in 10.0 mi South 8.1 mph - N/A   Clear
11:15 AM 79.3 °F - 63.5 °F 58% 29.98 in 10.0 mi SSW 8.1 mph 18.4 mph N/A   Clear
11:35 AM 79.3 °F - 65.7 °F 63% 29.97 in 10.0 mi South 10.4 mph 16.1 mph N/A   Clear
11:54 AM 80.8 °F 82.6 °F 65.1 °F 59% 29.96 in 10.0 mi SSW 11.5 mph 19.6 mph N/A   Clear
12:15 PM 81.5 °F 83.4 °F 65.3 °F 58% 29.96 in 10.0 mi South 15.0 mph 19.6 mph N/A   Scattered Clouds
12:35 PM 82.9 °F 84.6 °F 64.8 °F 54% 29.96 in 10.0 mi South 11.5 mph 19.6 mph N/A   Scattered Clouds
1:15 PM 83.3 °F 84.6 °F 64.0 °F 52% 29.94 in 10.0 mi SSW 11.5 mph 24.2 mph N/A   Scattered Clouds
1:35 PM 84.2 °F 85.8 °F 64.6 °F 52% 29.93 in 10.0 mi SSW 11.5 mph 20.7 mph N/A   Clear
1:54 PM 84.0 °F 85.6 °F 64.6 °F 52% 29.93 in 10.0 mi South 13.8 mph 24.2 mph N/A   Scattered Clouds
2:15 PM 84.7 °F 86.3 °F 64.8 °F 51% 29.91 in 10.0 mi SSW 11.5 mph 23.0 mph N/A   Scattered Clouds
2:35 PM 85.5 °F 86.8 °F 64.6 °F 49% 29.91 in 10.0 mi SSW 9.2 mph 23.0 mph N/A   Scattered Clouds
2:54 PM 82.9 °F 84.2 °F 63.5 °F 52% 29.90 in 10.0 mi SSW 9.2 mph 20.7 mph N/A   Mostly Cloudy
3:15 PM 84.2 °F 86.1 °F 65.1 °F 53% 29.90 in 10.0 mi South 13.8 mph 20.7 mph N/A   Overcast
3:35 PM 82.6 °F 84.5 °F 65.7 °F 56% 29.90 in 10.0 mi South 11.5 mph 18.4 mph N/A   Overcast
3:54 PM 82.9 °F 85.0 °F 65.7 °F 56% 29.90 in 10.0 mi SSW 10.4 mph 18.4 mph N/A   Overcast
4:15 PM 82.4 °F 84.6 °F 66.2 °F 58% 29.91 in 10.0 mi SW 4.6 mph - N/A   Overcast
4:35 PM 82.0 °F 84.3 °F 66.4 °F 59% 29.90 in 10.0 mi SW 10.4 mph 19.6 mph N/A   Overcast
4:54 PM 81.7 °F 84.2 °F 66.9 °F 61% 29.90 in 10.0 mi SW 6.9 mph 17.3 mph N/A   Overcast
5:15 PM 81.7 °F 84.3 °F 67.5 °F 62% 29.90 in 10.0 mi SW 5.8 mph - N/A   Overcast
5:35 PM 81.7 °F 84.7 °F 68.5 °F 64% 29.91 in 10.0 mi WSW 5.8 mph - N/A   Overcast
5:54 PM 81.1 °F 84.5 °F 69.8 °F 68% 29.91 in 10.0 mi West 8.1 mph 17.3 mph N/A   Overcast
6:15 PM 81.7 °F 85.4 °F 70.2 °F 68% 29.90 in 10.0 mi WSW 10.4 mph 17.3 mph N/A   Mostly Cloudy
6:35 PM 82.0 °F 85.7 °F 69.8 °F 66% 29.90 in 10.0 mi WSW 10.4 mph 20.7 mph N/A   Scattered Clouds
6:54 PM 82.0 °F 85.9 °F 70.2 °F 67% 29.91 in 10.0 mi WSW 12.7 mph 19.6 mph N/A   Mostly Cloudy
7:15 PM 82.4 °F 86.3 °F 70.2 °F 66% 29.91 in 10.0 mi WSW 8.1 mph 19.6 mph N/A   Overcast
7:35 PM 80.8 °F 84.2 °F 70.0 °F 70% 29.91 in 10.0 mi WSW 10.4 mph 16.1 mph N/A   Overcast
7:54 PM 80.4 °F 83.6 °F 70.0 °F 70% 29.89 in 10.0 mi SSW 5.8 mph - N/A   Mostly Cloudy
8:15 PM 79.7 °F - 70.0 °F 72% 29.91 in 10.0 mi WSW 6.9 mph - N/A   Scattered Clouds
8:35 PM 79.5 °F - 69.8 °F 72% 29.91 in 10.0 mi WSW 6.9 mph - N/A   Scattered Clouds
8:54 PM 74.1 °F - 70.0 °F 87% 29.95 in 2.0 mi WNW 9.2 mph 31.1 mph N/A Rain Heavy Rain
9:15 PM 74.1 °F - 73.2 °F 97% 29.93 in 7.0 mi Calm Calm - N/A Rain Light Rain
9:35 PM 74.3 °F - 73.8 °F 98% 29.94 in 10.0 mi WNW 6.9 mph - N/A   Mostly Cloudy
10:15 PM 71.4 °F - 69.1 °F 92% 29.97 in 10.0 mi NNW 13.8 mph 19.6 mph N/A   Overcast
10:35 PM 69.1 °F - 65.8 °F 89% 29.99 in 10.0 mi NW 13.8 mph 20.7 mph N/A   Scattered Clouds
10:54 PM 69.1 °F - 66.7 °F 92% 29.98 in 10.0 mi NW 11.5 mph 19.6 mph N/A   Mostly Cloudy
11:15 PM 65.7 °F - 63.9 °F 94% 29.99 in 10.0 mi NW 11.5 mph 16.1 mph N/A   Mostly Cloudy
11:35 PM 64.0 °F - 63.0 °F 96% 30.00 in 10.0 mi West 6.9 mph - N/A   Mostly Cloudy
11:54 PM 62.8 °F - 61.5 °F 96% 30.01 in 10.0 mi WNW 5.8 mph - N/A   Overcast